Location: Gibsondale
(40.9931°N, 80.2478°W)
Time: 09:00:54
(UTC+00:00)

SAR-Lupe-4 - Pass Details

Date: 29 October 2020
Orbit: 481 x 484 km, 98.2° (Epoch: 22 November)

Event Time Altitude Azimuth Distance (km) Brightness Sun altitude
Rises 23:22:33 0° 11° (N) 2,552 7.0 -12.4°
Reaches altitude 10° 23:24:37 10° 9° (N) 1,667 6.1 -12.8°
Maximum altitude 23:28:11 74° 285° (WNW) 505 3.7 -13.4°
Drops below altitude 10° 23:31:44 10° 200° (SSW) 1,654 6.6 -14.1°
Sets 23:33:47 0° 198° (SSW) 2,529 7.5 -14.5°
